GW5292 Weather Reports


Display with metric or nautical units.
time (UTC)temp
F
wind
direction
speed
MPH
gust
MPH
rain 1hr
in
rain 24hr
in
rain mn
in
humidity
%
barometer
mb
20260510180007 68 138 1.0 4.0 0.00 0.03 0.00 68 1014.1
20260510174514 68 205 1.0 5.0 0.00 0.03 0.00 68 1013.9
20260510173019 68 211 1.0 5.0 0.00 0.03 0.00 68 1014.1
20260510171526 68 57 1.0 4.0 0.00 0.04 0.00 69 1014.1
20260510170031 68 202 2.0 6.0 0.00 0.04 0.00 68 1014.1
20260510164517 69 73 1.0 3.0 0.00 0.05 0.00 68 1014.0
20260510163018 68 207 2.0 5.0 0.00 0.08 0.00 66 1013.9
20260510161523 69 200 3.0 4.0 0.00 0.10 0.00 67 1013.8
20260510160023 69 127 3.0 5.0 0.00 0.11 0.00 68 1013.5
20260510154539 68 190 1.0 4.0 0.00 0.11 0.00 68 1013.4
20260510153015 68 330 3.0 4.0 0.00 0.11 0.00 70 1013.4
20260510151518 68 209 2.0 5.0 0.00 0.11 0.00 71 1013.3
20260510150023 68 211 2.0 3.0 0.00 0.11 0.00 73 1013.3
20260510144538 66 217 2.0 3.0 0.00 0.11 0.00 74 1013.1
20260510143039 65 210 1.0 3.0 0.00 0.11 0.00 79 1013.0
20260510141516 64 209 0.0 3.0 0.00 0.11 0.00 80 1013.0
20260510140023 63 199 1.0 3.0 0.00 0.11 0.00 84 1013.2
20260510134505 61 100 0.0 2.0 0.00 0.11 0.00 86 1013.0
20260510133004 59 196 1.0 2.0 0.00 0.11 0.00 90 1013.1
20260510131502 57 206 0.0 2.0 0.00 0.11 0.00 95 1013.0
20260510130004 55 26 0.0 2.0 0.00 0.11 0.00 95 1013.2
20260510124504 54 195 0.0 2.0 0.00 0.11 0.00 96 1013.3
20260510123013 53 195 0.0 2.0 0.00 0.11 0.00 96 1013.1
20260510121508 53 161 0.0 2.0 0.00 0.11 0.00 96 1013.1
20260510120004 53 161 0.0 2.0 0.00 0.11 0.00 96 1012.8
20260510114504 53 161 0.0 2.0 0.00 0.11 0.00 97 1012.9
20260510113013 52 161 0.0 2.0 0.00 0.11 0.00 97 1012.4
20260510111510 51 161 0.0 2.0 0.00 0.11 0.00 96 1012.2
20260510110017 51 48 1.0 1.0 0.00 0.11 0.00 96 1011.6
20260510104503 51 48 0.0 1.0 0.00 0.11 0.00 96 1011.5
20260510103006 51 157 0.0 0.0 0.00 0.11 0.00 96 1011.7
20260510101509 50 157 0.0 2.0 0.00 0.11 0.00 96 1011.7
20260510100017 50 157 1.0 2.0 0.00 0.11 0.00 96 1012.0
20260510094537 50 157 1.0 2.0 0.00 0.11 0.00 96 1011.8
20260510093003 50 136 0.0 2.0 0.00 0.11 0.00 96 1011.5
20260510091516 50 28 0.0 0.0 0.00 0.11 0.00 96 1011.2
20260510090015 50 28 0.0 2.0 0.00 0.11 0.00 96 1011.1
20260510084521 50 24 0.0 2.0 0.00 0.11 0.00 96 1011.0
20260510083016 50 24 0.0 2.0 0.00 0.11 0.00 96 1010.9
20260510081503 50 24 0.0 2.0 0.00 0.11 0.00 96 1010.9
20260510080013 50 49 0.0 2.0 0.00 0.11 0.00 96 1011.0
20260510074516 50 49 1.0 1.0 0.00 0.11 0.00 96 1011.2
20260510073020 49 141 0.0 2.0 0.00 0.11 0.00 96 1011.3
20260510071519 49 141 0.0 2.0 0.00 0.11 0.00 96 1011.7
20260510070028 49 139 2.0 3.0 0.00 0.11 0.00 96 1011.5
20260510064512 47 352 1.0 2.0 0.00 0.11 0.00 95 1011.2
20260510063017 48 126 0.0 0.0 0.00 0.11 0.00 95 1010.8
20260510061520 48 126 0.0 2.0 0.00 0.11 0.00 96 1011.0
20260510060008 47 126 0.0 1.0 0.00 0.11 0.00 95 1011.2
20260510054508 47 126 0.0 2.0 0.00 0.11 0.00 94 1011.4
20260510053036 47 126 0.0 2.0 0.00 0.11 0.00 94 1010.9
20260510051503 47 126 0.0 0.0 0.00 0.11 0.00 94 1010.6
20260510050005 48 126 0.0 0.0 0.00 0.11 0.00 94 1010.8
20260510044508 48 126 0.0 2.0 0.00 0.11 0.00 93 1010.7
20260510043014 49 126 0.0 2.0 0.00 0.11 0.00 94 1010.9
20260510041523 49 41 0.0 2.0 0.00 0.11 0.00 93 1010.9
20260510040003 50 41 0.0 2.0 0.00 0.11 0.00 93 1011.0
20260510034504 50 41 0.0 2.0 0.00 0.11 0.11 92 1010.8
20260510033009 51 41 0.0 0.0 0.00 0.11 0.11 92 1010.8
20260510031521 52 41 0.0 0.0 0.00 0.11 0.11 90 1010.8
20260510030020 53 41 0.0 2.0 0.00 0.11 0.11 91 1010.8
20260510024506 54 41 0.0 0.0 0.00 0.11 0.11 91 1010.8
20260510023006 54 33 1.0 2.0 0.00 0.11 0.11 92 1010.6
20260510021525 54 161 0.0 2.0 0.00 0.11 0.11 92 1010.6
20260510020016 54 14 0.0 2.0 0.00 0.11 0.11 92 1010.4
20260510014523 54 352 0.0 0.0 0.00 0.11 0.11 90 1010.2
20260510013004 55 352 0.0 0.0 0.00 0.11 0.11 90 1010.2
20260510011508 55 352 0.0 2.0 0.00 0.11 0.11 89 1010.1
20260510010012 55 269 0.0 0.0 0.00 0.11 0.11 88 1010.0
20260510004525 56 269 0.0 2.0 0.00 0.11 0.11 86 1009.9
20260510003024 57 273 0.0 0.0 0.00 0.11 0.11 84 1009.8
20260510001509 57 273 0.0 2.0 0.00 0.11 0.11 82 1009.5
20260510000009 58 317 0.0 2.0 0.00 0.11 0.11 80 1009.3
20260509234515 59 290 0.0 1.0 0.00 0.11 0.11 77 1009.3
20260509233020 59 179 0.0 2.0 0.00 0.11 0.11 76 1009.2
20260509231523 59 59 0.0 2.0 0.00 0.11 0.11 79 1009.3
20260509230009 59 79 0.0 2.0 0.00 0.11 0.11 79 1009.2
20260509224511 59 165 0.0 1.0 0.00 0.11 0.11 78 1009.2
20260509223016 59 165 0.0 0.0 0.00 0.11 0.11 79 1009.2
20260509221523 59 173 0.0 3.0 0.00 0.11 0.11 78 1009.1
20260509220025 59 172 0.0 2.0 0.00 0.11 0.11 80 1009.3
20260509214510 59 173 0.0 2.0 0.00 0.11 0.11 82 1009.6
20260509213025 59 161 0.0 2.0 0.00 0.11 0.11 80 1009.9
20260509211520 58 146 0.0 2.0 0.00 0.11 0.11 82 1009.5
20260509210024 58 211 0.0 2.0 0.00 0.11 0.11 82 1009.7
20260509204530 58 211 0.0 2.0 0.00 0.11 0.11 84 1010.0
20260509203016 58 211 0.0 2.0 0.00 0.11 0.11 83 1010.2
20260509201518 59 200 1.0 3.0 0.00 0.11 0.11 83 1010.3
20260509200024 58 87 0.0 2.0 0.00 0.11 0.11 85 1010.3
20260509194503 58 177 0.0 2.0 0.00 0.11 0.11 85 1010.3
20260509193018 57 15 0.0 2.0 0.01 0.11 0.11 86 1010.5
20260509191518 56 15 0.0 2.0 0.02 0.11 0.11 87 1010.5
20260509190003 56 69 0.0 3.0 0.03 0.11 0.11 89 1010.7
20260509184512 55 189 0.0 2.0 0.03 0.11 0.11 89 1011.0
20260509183006 55 167 0.0 3.0 0.02 0.10 0.10 89 1011.5
20260509181511 55 167 0.0 0.0 0.02 0.09 0.09 90 1011.4